Weather in Novonikolaevka

Russia / Republic of Crimea     45°18′33″N   36°03′32″E
temp.,
°C
wind,
m/s
gust,
m/s
humid.,
%
clouds,
%
prec.,
mm/h
press.,
hPa
HPBL,
m
27 february, sat
sat2700:00+7sw713920 0.0 1023289
03:00+7sw712900 0.0 1022303
06:00+6sw612900 0.0 1020288
09:00+8sw711790 0.0 1020376
12:00+11sw79670 0.0 1019601
15:00+11sw68652 0.0 1018595
18:00+9wsw357626 0.0 1017367
21:00+7n469262 0.1 1017306
28 february, sun
sun2800:00+5nnw71092100 1.0 1018510
03:00+5nnw5888100 1.2 1018622
06:00+4nnw598698 0.0 1019432
09:00+4nnw688297 0.2 1019776
12:00+5nnw7874100 0.1 1021934
15:00+4nnw6779100 0.3 1021763
18:00+3nw579362 0.1 1021509
21:00+3nw378377 0.2 1022490
1 march, mon
mon100:00+3nw368186 0.1 1023359
03:00+2wnw378987 0.3 1023352
06:00+1nw2492100 0.1 1024149
09:00+3nw238699 0.1 1025368
12:00+4nw337399 0.3 1026657
15:00+5n2268100 0.4 1026770
18:00+3nne347695 0.1 1027529
21:00+1n228593 0.1 102827
2 march, tue
tue200:00+1nnw23855 0.0 102949
03:000nnw12872 0.0 102922
06:000nnw22860 0.0 102924
09:00+3nw346923 0.0 1030630
12:00+5nw565761 0.0 10291126
15:00+5wnw575644 0.0 10281130
18:00+4w496264 0.0 1026863
21:00+3w5107282 0.0 1026544
3 march, wed
wed300:00+2w5118093 0.0 1025429
03:00+4w5108297 0.0 1024449
06:00+4nw4889100 0.1 1024448
09:00+4nw587780 0.1 1025685
12:00+7nw79640 0.0 1025835
15:00+5nw698023 0.1 1025798
18:00+6nnw487282 0.1 1025618
21:00+6n476986 0.2 1027500